This is the latest recevied weather packets stored in our database for station/object KF0JHJ. If no packets are shown the sender has not sent any weather packets the latest 10 day(s).
| Time | Temp. | Humidity | Pressure | Rain* | Wind** | Luminosity | Snow |
|---|---|---|---|---|---|---|---|
| 1777577895 | 9.44° C | 50% | 1015.3 hPa | - | - | 221 W/m² | - |
| 1777577591 | 10° C | 51% | 1015.5 hPa | - | - | 242 W/m² | - |
| 1777577289 | 10° C | 53% | 1015.4 hPa | - | - | 548 W/m² | - |
| 1777576984 | 10° C | 52% | 1015.5 hPa | - | - | 237 W/m² | - |
| 1777576681 | 9.44° C | 52% | 1015.6 hPa | - | - | 192 W/m² | - |
| 1777576380 | 10° C | 51% | 1015.3 hPa | - | - | 187 W/m² | - |
| 1777576077 | 10° C | 52% | 1015.5 hPa | - | - | 297 W/m² | - |
| 1777575773 | 10° C | 52% | 1015.6 hPa | - | - | 248 W/m² | - |
| 1777575469 | 10° C | 50% | 1015.5 hPa | - | - | 193 W/m² | - |
| 1777575165 | 10° C | 49% | 1015.6 hPa | - | - | 208 W/m² | - |
| 1777574861 | 10.56° C | 49% | 1015.7 hPa | - | - | 213 W/m² | - |
| 1777574559 | 10° C | 52% | 1015.6 hPa | - | - | 751 W/m² | - |
| 1777574255 | 9.44° C | 50% | 1015.4 hPa | - | - | 390 W/m² | - |
| 1777573950 | 9.44° C | 51% | 1015.9 hPa | - | - | 745 W/m² | - |
| 1777573645 | 9.44° C | 51% | 1015.6 hPa | - | - | 701 W/m² | - |
| 1777573342 | 9.44° C | 50% | 1015.6 hPa | - | - | 703 W/m² | - |
| 1777573038 | 10° C | 50% | 1015.9 hPa | - | - | 132 W/m² | - |
| 1777572735 | 11.11° C | 51% | 1015.9 hPa | - | - | 662 W/m² | - |
| 1777572435 | 10° C | 52% | 1015.8 hPa | - | - | 716 W/m² | - |
| 1777572132 | 9.44° C | 52% | 1015.8 hPa | - | - | 144 W/m² | - |
| 1777571827 | 9.44° C | 52% | 1016 hPa | - | - | 703 W/m² | - |
| 1777571523 | 9.44° C | 51% | 1015.8 hPa | - | - | 700 W/m² | - |
| 1777571220 | 9.44° C | 54% | 1016.2 hPa | - | - | 686 W/m² | - |
| 1777570915 | 9.44° C | 51% | 1016.1 hPa | - | - | 668 W/m² | - |
| 1777570611 | 8.89° C | 53% | 1016.3 hPa | - | - | 721 W/m² | - |
* Rain since midnight (hover to see other rain measurements)
** Current wind speed in m/s (hover to see current wind gust speed)